Terminal Aerodrome Forecast
Issued by NWS

Home | Current Version | Previous Version | Text Only | Print | Product List | Glossary On
Versions: 1 2 3 4 5 6 7 8 9 10 11 12 13 14 15 16 17 18 19
079
FTUS45 KVEF 292335
TAFHND
TAF
KHND 292335Z 3000/3024 25010KT P6SM FEW070 SCT110
     FM300300 22011KT P6SM SCT090 BKN120
     FM300900 22011KT P6SM SCT060 BKN100
     FM301200 36007KT P6SM VCSH SCT050 OVC100
     FM302100 06008KT P6SM SCT050 BKN100=

USA.gov is the U.S. government's official web portal to all federal, state and local government web resources and services.